Probability
0 0 0 0 0 0 0 0 0 0 0 0 0 0 0 0 0 0 0 0 0 0 0 0 0 0 0 0 0 0 0 0 0 0 0 0 0 0
0 0 0 0 0 0 0 0 0 0 0 0 0 0 0 0 0 0 0 0 0 0 0 0 0 0 0 0 0 0 0 0 0 0 0 0 0 0
0 0 0 0 0 0 0 0 0 0 0 0 0 0 0 0 0 0 0 0 0 0 0 0 0 0 0 0 0 0 0 0 0 0 0 0 0 0
0 0 0 0 0 0 0 0 0 0 0 0 0 0 0 0 0 0 0 0 0 0 0 0 0 0 0 0 0 0 0 0 0 0 0 0 0 0
0 0 0 0 0 0 0 0 0 0 0 0 0 0 0 0 0 0 0 0 0 0 0 0 0 0 0 0 0 0 0 0 0 0 0 0 0 0
0 0 0 0 0 0 0 0 0 0 0 0 0 0 0 0 0 0 0 0 0 0 0 0 0 0 0 0 0 0 0 0 0 0 0 0 0 0
0 0 0 0 0 0 0 0 0 0 0 0 0 0 0 0 0 0 0 0 0 0 0 0 0 0 0 0 0 0 0 0 0 0 0 0 0 0
0 0 0 0 0 0 0 0 0 0 0 0 0 0 0 0 0 0 0 0 0 0 0 0 0 0 0 0 0 0 0 0 0 0 0 0 0 0
0 0 0 0 0 0 0 0 0 0 0 0 0 0 0 0 0 0 0 0 0 0 0 0 0 0 0 0 0 0 0 0 0 0 0 0 0 0
0 0 0 0 0 0 0 0 0 0 0 0 0 0 0 0 0 0 0 0 0 0 0 0 0 0 0 0 0 0 0 0 0 0 0 0 0 0
0 0 0 0 0 0 0 0 0 0 0 0 0 0 0 0 0 0 0 0 0 0 0 0 0 0 0 0 0 0 0 0 0 0 0 0 0 0
0 0 0 0 0 0 0 0 0 0 0 0 0 0 0 0 0 0 0 0 0 0 0 0 0 0 0 0 0 0 0 0 0 0 0 0 0 0
0 0 0 0 0 0 0 0 0 0 0 0 0 0 0 0 0 0 0 0 0 0 0 0 0 0 0 0 0 0 0 0 0 0 0 0 0 0
0 0 0 0 0 0 0 0 0 0 0 0 0 0 0 0 0 0 0 0 0 0 0 0 0 0 0 0 0 0 0 0 0 0 0 0 0 0
0 0 0 0 0 0 0 0 0 0 0 0 0 0 0 0 0 0 0 0 0 0 0 0 0 0 0 0 0 0 0 0 0 0 0 0 0 0
0 0 0 0 0 0 0 0 0 0 0 0 0 0 0 0 0 0 0 0 0 0 0 0 0 0 0 0 0 0 0 0 0 0 0 0 0 0
0 0 0 0 0 0 0 0 0 0 0 0 0 0 0 0 0 0 0 0 0 0 0 0 0 0 0 0 0 0 0 0 0 0 0 0 0 0
0 0 0 0 0 0 0 0 0 0 0 0 0 0 0 0 0 0 0 0 0 0 0 0 0 0 0 0 0 0 0 0 0 0 0 0 0 0
0 0 0 0 0 0 0 0 0 0 0 0 0 0 0 0 0 0 0 0 0 0 0 0 0 0 0 0 0 0 0 0 0 0 0 0 0 0
0 0 0 0 0 0 0 0 0 0 0 0 0 0 0 0 0 0 0 0 0 0 0 0 0 0 0 0 0 0 0 0 0 0 0 0 0 0
0 0 0 0 0 0 0 0 0 0 0 0 0 0 0 0 0 0 0 0 0 0 0 0 0 0 0 0 0 0 0 0 0 0 0 0 0 0
0 0 0 0 0 0 0 0 0 0 0 0 0 0 0 0 0 0 0 0 0 0 0 0 0 0 0 0 0 0 0 0 0 0 0 0 0 0
0 0 0 0 0 0 0 0 0 0 0 0 0 0 0 0 0 0 0 0 0 0 0 0 0 0 0 0 0 0 0 0 0 0 0 0 0 0
Wind_Speed
1 0 1 2 1 2 2 2 3 5 5 4 4 4 6 6 12 9 7 19 27 28 29 29 29 29 29 29 29 29 29 29 29 29 29 30 30 30
1 1 2 2 2 1 2 3 3 6 8 4 4 6 7 10 17 11 10 26 27 28 29 29 29 30 30 30 30 30 30 30 30 30 30 30 30 30
2 3 3 3 2 2 2 3 4 5 10 8 5 5 7 9 10 9 10 10 12 25 28 29 30 30 30 30 30 30 30 30 30 30 30 30 30 30
3 3 3 3 3 3 3 4 4 5 8 12 7 6 8 9 10 10 12 12 9 22 28 29 29 30 30 30 30 30 30 30 30 30 30 30 30 30
3 4 4 3 4 4 4 4 4 6 6 9 10 6 7 9 10 11 12 9 12 17 23 25 27 29 30 31 30 30 30 30 29 29 29 29 29 29
4 4 4 4 5 4 4 5 5 6 6 8 10 9 9 8 8 9 10 7 9 12 17 20 24 28 29 30 31 31 30 30 29 29 28 28 28 29
5 5 5 7 10 8 7 5 6 5 6 8 10 11 9 8 8 8 12 10 9 10 10 10 11 11 14 21 26 28 29 29 29 29 29 29 29 29
6 5 6 7 10 14 16 16 15 10 9 9 10 12 12 10 9 9 11 13 14 5 7 12 10 12 11 9 21 29 30 30 30 30 29 29 29 29
6 5 6 6 11 5 11 16 14 19 21 15 13 13 13 11 10 11 12 14 16 10 10 15 10 12 11 14 26 30 31 31 30 29 28 28 28 28
6 6 6 6 7 10 8 6 7 10 15 13 11 12 11 10 11 14 14 13 12 9 8 14 13 13 13 10 22 29 30 28 28 28 28 28 28 28
6 6 8 7 15 19 10 8 10 10 16 21 23 22 26 27 21 11 8 10 14 12 6 8 10 13 13 12 14 23 24 26 28 29 29 28 28 27
5 6 13 15 18 20 11 10 13 11 10 12 14 17 15 15 20 11 7 10 12 11 4 4 7 10 11 6 5 8 13 21 27 28 28 28 28 17
5 5 6 19 21 22 20 11 15 16 9 8 9 10 8 7 8 7 7 8 12 12 9 7 9 8 10 12 9 9 10 10 11 15 21 25 27 22
6 5 8 20 23 24 18 17 22 18 7 7 8 9 9 9 9 10 11 11 12 16 15 12 12 12 13 15 14 11 9 10 11 12 11 18 21 25
8 15 20 23 22 14 16 20 16 7 7 8 9 9 7 8 10 10 11 11 12 13 13 13 13 13 12 14 15 15 15 13 10 8 9 11 12 12
8 13 19 19 16 15 13 10 6 7 8 8 9 9 9 9 9 9 10 10 11 12 9 10 12 14 13 14 14 16 14 11 10 11 12 12 12 11
11 6 5 6 5 6 6 6 6 7 8 8 9 10 10 10 10 8 8 10 11 13 14 9 8 10 13 15 15 15 14 13 12 12 12 14 12 11
11 5 6 6 7 8 9 9 9 8 8 9 9 10 10 10 11 10 9 10 11 12 12 12 12 12 10 10 15 14 12 12 12 12 13 14 15 11
6 5 6 7 8 8 8 9 10 9 9 9 9 10 10 10 10 11 10 10 11 11 12 11 10 11 14 15 9 10 11 13 13 12 11 12 14 12
5 6 7 7 8 8 9 9 10 10 9 9 10 10 10 10 11 11 10 11 12 12 12 10 8 9 11 14 14 14 13 12 13 14 13 12 11 14
6 7 7 8 8 9 9 9 10 10 11 10 10 11 10 10 10 11 11 16 15 11 12 12 11 18 13 10 12 12 10 11 15 14 15 13 12 9
7 8 8 8 9 9 9 9 10 10 11 10 10 10 10 10 11 12 11 11 11 11 13 12 11 11 9 11 13 14 14 13 13 18 18 16 11 9
8 8 9 9 9 8 9 10 11 11 10 10 10 10 10 10 10 10 11 11 11 12 12 12 11 9 10 10 12 12 15 15 12 12 11 16 19 19
Wind_Direction
195 190 249 253 246 246 251 242 262 288 291 277 290 326 329 313 308 307 295 302 303 301 302 301 300 299 298 298 297 295 293 291 289 286 283 281 278 277
179 225 266 265 272 268 263 261 250 268 282 277 294 297 306 310 306 305 298 302 302 300 298 298 298 298 298 297 296 295 293 291 289 286 284 282 280 278
263 246 256 263 267 268 270 269 265 265 280 286 279 292 298 295 296 289 290 286 288 296 298 299 299 299 299 298 296 295 293 291 289 287 285 284 282 280
277 280 279 282 278 273 269 267 269 269 281 293 296 294 291 292 290 289 296 295 291 297 300 300 301 300 299 298 296 295 293 292 290 288 286 284 282 280
276 269 270 276 278 274 277 280 280 288 286 294 299 294 291 290 292 291 289 290 294 298 301 301 299 298 297 298 298 298 297 295 292 289 287 284 281 279
285 274 265 258 259 264 276 273 277 281 283 288 293 293 289 285 286 294 296 285 290 296 294 294 294 298 297 298 297 296 295 293 290 288 285 283 280 277
304 293 283 285 287 286 283 270 275 276 282 287 291 292 292 294 293 293 297 297 287 283 284 286 290 287 289 290 293 291 290 290 290 289 288 285 282 278
300 297 297 295 295 300 305 304 301 299 298 291 292 292 294 291 291 292 297 299 297 272 284 292 287 286 285 280 288 293 294 296 295 293 291 287 284 280
291 293 297 297 307 295 294 297 298 298 297 295 292 290 290 288 287 289 288 287 289 292 295 293 289 287 285 289 295 296 296 296 294 293 291 289 286 282
297 294 291 290 292 297 283 283 278 289 290 290 282 282 287 286 280 285 287 287 285 281 273 286 293 291 292 287 292 292 293 294 296 297 296 293 290 286
304 312 316 301 302 308 310 301 294 290 297 297 296 298 299 300 300 299 295 297 296 294 279 274 288 298 293 285 283 288 293 298 298 296 295 293 292 290
305 306 310 309 309 313 311 301 300 298 294 295 297 297 294 292 300 297 293 296 296 297 279 280 296 311 300 269 265 287 290 291 293 294 295 294 293 290
296 297 298 310 311 311 310 301 298 303 299 297 297 294 293 291 292 288 285 287 290 285 289 300 292 289 282 293 292 282 279 284 289 290 291 291 290 288
307 300 302 311 312 312 311 305 307 311 303 298 295 294 296 297 297 296 292 285 274 276 283 284 283 286 287 287 292 293 288 283 283 284 282 285 288 288
307 311 313 314 314 311 307 312 317 311 299 295 294 293 290 290 296 297 294 287 279 274 273 269 270 276 275 279 285 290 296 295 279 273 280 283 284 285
305 305 312 312 311 312 314 316 308 297 301 297 299 297 298 297 297 298 300 303 299 294 276 258 259 268 275 276 279 284 285 283 287 286 286 286 282 276
311 305 304 307 310 313 309 305 302 306 306 300 299 300 301 300 299 298 295 298 294 298 303 300 272 263 265 272 278 277 280 282 282 288 292 292 287 280
322 315 312 313 313 313 313 312 310 307 303 302 299 297 298 299 300 299 296 295 295 296 297 301 306 304 291 261 243 264 277 286 291 290 287 289 292 289
333 313 308 308 307 307 306 305 304 303 301 298 296 296 297 296 296 297 298 297 295 295 295 296 299 303 308 310 283 238 274 292 294 293 289 288 291 292
311 304 304 304 304 304 303 302 301 302 301 299 297 295 294 294 294 295 296 296 298 298 299 297 295 299 300 299 297 295 282 285 297 300 300 294 284 281
309 306 303 303 301 300 299 298 297 297 297 298 295 294 294 294 293 293 294 297 300 299 300 301 295 300 296 291 292 297 297 288 290 297 304 303 301 295
308 306 303 300 300 298 298 297 296 296 296 295 294 294 294 292 292 294 295 298 298 297 298 298 299 304 304 305 304 305 308 310 305 301 297 295 303 306
306 304 302 300 298 296 296 295 294 294 294 294 294 294 294 295 294 293 294 296 298 301 305 309 312 312 309 306 307 309 310 315 316 317 311 311 314 312